TimeEDT,TemperatureF,Dew PointF,Humidity,Sea Level PressureIn,VisibilityMPH,Wind Direction,Wind SpeedMPH,Gust SpeedMPH,PrecipitationIn,Events,Conditions,WindDirDegrees,DateUTC
12:53 AM,57.9,32.0,37,29.90,10.0,SSE,5.8,-,N/A,,Clear,150,2013-03-11 04:53:00
1:53 AM,57.9,30.9,36,29.88,10.0,South,6.9,-,N/A,,Clear,170,2013-03-11 05:53:00
2:53 AM,60.1,33.1,36,29.86,10.0,South,12.7,20.7,N/A,,Clear,180,2013-03-11 06:53:00
3:53 AM,59.0,35.1,41,29.84,10.0,South,11.5,20.7,N/A,,Clear,180,2013-03-11 07:53:00
4:53 AM,59.0,37.9,46,29.81,10.0,SSE,8.1,-,N/A,,Clear,160,2013-03-11 08:53:00
6:53 AM,59.0,43.0,55,29.82,10.0,South,16.1,29.9,N/A,,Clear,180,2013-03-11 10:53:00
8:53 AM,59.0,46.0,62,29.82,10.0,South,8.1,18.4,N/A,,Scattered Clouds,170,2013-03-11 12:53:00
9:53 AM,59.0,46.0,62,29.80,10.0,South,10.4,-,N/A,,Overcast,180,2013-03-11 13:53:00
10:53 AM,60.1,46.0,60,29.80,10.0,South,16.1,26.5,0.00,Rain,Light Rain,180,2013-03-11 14:53:00
11:53 AM,57.9,48.0,70,29.79,9.0,South,13.8,23.0,0.01,Rain,Light Rain,190,2013-03-11 15:53:00
12:41 PM,55.4,51.8,88,29.83,2.5,WSW,9.2,-,0.06,Rain,Rain,240,2013-03-11 16:41:00
12:53 PM,54.0,52.0,93,29.82,3.0,WSW,9.2,-,0.10,Rain,Rain,240,2013-03-11 16:53:00
1:02 PM,53.6,51.8,94,29.82,2.5,SW,5.8,-,0.03,Rain,Rain,230,2013-03-11 17:02:00
1:21 PM,53.6,53.6,100,29.81,2.5,South,5.8,-,0.09,Rain,Rain,180,2013-03-11 17:21:00
1:53 PM,54.0,53.1,97,29.79,2.0,South,8.1,-,0.21,Rain,Rain,190,2013-03-11 17:53:00
2:08 PM,53.6,53.6,100,29.78,4.0,South,8.1,16.1,0.05,Rain,Rain,170,2013-03-11 18:08:00
2:53 PM,55.0,52.0,89,29.76,4.0,South,15.0,18.4,0.14,Rain,Rain,180,2013-03-11 18:53:00
3:53 PM,55.0,51.1,86,29.73,8.0,South,11.5,-,0.07,Rain,Light Rain,180,2013-03-11 19:53:00
4:53 PM,54.0,50.0,86,29.73,10.0,SSW,8.1,16.1,0.07,Rain,Light Rain,210,2013-03-11 20:53:00
5:53 PM,54.0,48.9,83,29.75,9.0,WSW,9.2,-,0.01,Rain,Light Rain,240,2013-03-11 21:53:00
6:02 PM,50.0,46.4,87,29.76,8.0,West,12.7,-,0.00,Rain,Light Rain,280,2013-03-11 22:02:00
6:20 PM,48.2,46.4,93,29.78,10.0,West,15.0,-,0.00,,Overcast,260,2013-03-11 22:20:00
6:53 PM,48.0,45.0,89,29.78,10.0,West,15.0,21.9,0.00,,Overcast,260,2013-03-11 22:53:00
7:20 PM,46.4,44.6,93,29.80,8.0,West,13.8,-,0.01,Rain,Light Rain,260,2013-03-11 23:20:00
7:53 PM,46.0,44.1,93,29.81,10.0,West,10.4,19.6,0.01,Rain,Light Rain,260,2013-03-11 23:53:00
8:23 PM,44.6,42.8,93,29.83,7.0,West,10.4,-,0.00,Rain,Light Rain,280,2013-03-12 00:23:00
8:53 PM,45.0,41.0,86,29.85,10.0,WNW,10.4,-,0.00,,Overcast,290,2013-03-12 00:53:00
9:04 PM,44.6,39.2,81,29.85,10.0,WNW,17.3,23.0,N/A,,Overcast,290,2013-03-12 01:04:00
9:53 PM,41.0,37.0,86,29.88,10.0,WNW,13.8,18.4,N/A,,Overcast,300,2013-03-12 01:53:00
10:02 PM,41.0,35.6,81,29.89,10.0,WNW,8.1,-,N/A,,Overcast,290,2013-03-12 02:02:00
10:53 PM,39.9,34.0,79,29.91,10.0,West,5.8,-,N/A,,Overcast,280,2013-03-12 02:53:00
11:53 PM,39.9,34.0,79,29.92,10.0,West,6.9,-,N/A,,Overcast,280,2013-03-12 03:53:00